Location: Larrial
(48.2758°N, 4.5331°W)
Time: 09:18:42
(UTC+00:00)

Envisat - Visible Passes

Search period start: 26 September 2021 00:00
Search period end: 06 October 2021 00:00
Orbit: 764 x 766 km, 98.2° (Epoch: 25 September)

Date Brightness Start Highest point End Pass type
(mag) Time Alt. Az. Time Alt. Az. Time Alt. Az.
26 Sep 4.4 05:01:17 10° NNE 05:06:06 41° E 05:10:53 10° SSE visible
27 Sep 5.7 04:25:10 10° NE 04:28:56 20° E 04:32:40 10° SE visible
28 Sep 3.4 05:26:26 10° NNE 05:31:32 68° ESE 05:36:35 10° S visible
29 Sep 4.9 04:49:55 10° NNE 04:54:31 33° E 04:59:05 10° SSE visible
30 Sep 5.9 04:14:06 10° NE 04:17:17 16° E 04:20:27 10° SE visible
01 Oct 3.8 05:14:58 10° NNE 05:19:59 55° E 05:24:58 10° S visible
02 Oct 5.2 04:38:36 10° NE 04:42:54 27° E 04:47:10 10° SSE visible
03 Oct 6.1 04:03:16 10° ENE 04:05:37 13° E 04:07:57 10° ESE visible
03 Oct 3.1 05:40:14 10° NNE 05:45:22 90° ESE 05:50:27 10° SSW visible
04 Oct 4.3 05:03:33 10° NNE 05:08:25 44° E 05:13:16 10° S visible
05 Oct 5.5 04:27:22 10° NE 04:31:17 22° E 04:35:10 10° SE visible
